Weather Roundup
Issued by NWS

Home | Current Version | Previous Version | Graphics & Text | Print | Product List | Glossary Off
Versions: 1 2 3 4 5 6 7 8 9 10 11 12 13 14 15 16 17 18 19 20 21 22 23 24 25 26 27 28 29 30 31 32 33 34 35 36 37 38 39 40 41 42 43 44 45 46 47 48 49 50

000
NZUS93 KARX 222359
HRRWXR

CURRENT HOURLY OBSERVATIONS ACROSS
MUCH OF THE UPPER MISSISSIPPI VALLEY
NATIONAL WEATHER SERVICE LA CROSSE WI
700 PM CDT WED OCT 22 2014


...SOUTHEAST MINNESOTA...


CITY           SKY/WX    TMP DP  RH WIND       PRES   REMARKS
ROCHESTER      MOCLDY    54  39  57 S17G24    30.12S
ROCHESTER/MAYO CLOUDY    55  37  49 SE12      30.12R
WINONA         CLEAR     54  41  62 SE9       30.15S
AUSTIN         CLOUDY    55  39  54 S12       30.10S
ALBERT LEA     CLOUDY    57  41  54 SE15      30.08R
DODGE CENTER   MOCLDY    55  41  58 S15G21    30.09S
PRESTON        PTCLDY    52  38  57 SE10G16   30.15R
OWATONNA       CLOUDY    57  39  51 SE15G22   30.06S
FARIBAULT      CLOUDY    57  43  58 SE17      30.06S
$$

...ELSEWHERE IN MINNESOTA...


CITY           SKY/WX    TMP DP  RH WIND       PRES   REMARKS
MINNEAPOLIS    CLOUDY    57  41  55 SE10      30.04S
INTNL FALLS    MOCLDY    56  42  59 S8G20     29.94R
DULUTH         PTCLDY    49  40  71 SE10      30.04S
RED WING       NOT AVBL
REDWOOD FALLS  CLOUDY    63  46  54 S18       29.96R
MANKATO        CLOUDY    57  39  51 SE18      30.02S
WORTHINGTON    CLOUDY    61  55  82 SW10      30.01R
FAIRMONT       MOCLDY    59  43  55 S17G28    30.02R
$$

...SOUTHWEST WISCONSIN...


CITY           SKY/WX    TMP DP  RH WIND       PRES   REMARKS
LA CROSSE      CLEAR     56  36  47 SE9       30.16S
PRAIRIE DU CHI CLEAR     53  37  53 SE6       30.18S
BOSCOBEL       CLEAR     49  37  63 SE3       30.20S
LONE ROCK      NOT AVBL
PLATTEVILLE    CLEAR     50  37  62 SE7       30.21F
FORT MC COY    CLEAR     50  34  53 SE5       30.18F
VIROQUA        FAIR      50  35  57 SE6       30.18S
WIS DELLS      CLEAR     47  36  65 SE5       30.21F
$$

...ELSEWHERE IN WISCONSIN...


CITY           SKY/WX    TMP DP  RH WIND       PRES   REMARKS
MILWAUKEE      PTCLDY    44  37  76 SE6       30.27F
MADISON        CLEAR     50  36  58 S3        30.23S
GREEN BAY      CLEAR     43  39  86 SE7       30.27R
EAU CLAIRE     NOT AVBL
BLACK RVR FLS  FAIR      53  33  46 SE3       30.16F
MEDFORD        CLEAR     47  33  58 SE7       30.17F
WAUSAU         CLEAR     48  34  58 SE8       30.19F
WIS RAPIDS     CLEAR     48  36  63 SE5       30.21F
MARSHFIELD     CLEAR     47  35  63 E7        30.18F
RICE LAKE      CLOUDY    55  32  42 SE14      30.11F
$$

...NORTHEAST IOWA...


CITY           SKY/WX    TMP DP  RH WIND       PRES   REMARKS
DECORAH        MOCLDY    54  37  54 SE8G14    30.15S
MASON CITY     CLOUDY    57  42  57 SE15      30.11S
CHARLES CITY   CLOUDY    57  41  54 SE12      30.14R
OELWEIN        PTCLDY    52  39  62 SE9       30.17R
$$

...ELSEWHERE IN IOWA...


CITY           SKY/WX    TMP DP  RH WIND       PRES   REMARKS
DES MOINES     MOCLDY    62  46  55 SE15      30.12R
IOWA CITY      CLEAR     52  39  61 SE7       30.21R
FORT DODGE     MOCLDY    61  45  55 SE8       30.08R
$$

...NORTHERN ILLINOIS...


CITY           SKY/WX    TMP DP  RH WIND       PRES   REMARKS
CHICAGO-OHARE  CLEAR     46  37  71 E7        30.27F
CHICAGO-MIDWAY CLEAR     49  38  65 E7        30.28F
MOLINE         CLEAR     48  36  63 SE5       30.21R
ROCKFORD       PTCLDY    50  36  58 SE6       30.26R
PEORIA         CLEAR     56  36  47 SE5       30.23S
$$

NOTE: "FAIR" INDICATES FEW OR NO CLOUDS BELOW 12,000 FEET WITH NO
SIGNIFICANT WEATHER AND/OR OBSTRUCTIONS TO VISIBILITY. WIND
SPEEDS ARE IN MILES-PER-HOUR.



USA.gov is the U.S. government's official web portal to all federal, state and local government web resources and services.